Date,TemperatureHighF,TemperatureAvgF,TemperatureLowF,DewpointHighF,DewpointAvgF,DewpointLowF,HumidityHigh,HumidityAvg,HumidityLow,PressureMaxIn,PressureMinIn,WindSpeedMaxMPH,WindSpeedAvgMPH,GustSpeedMaxMPH,PrecipitationSumIn
2013-3-1,36.0,34.3,31.0,33.0,31.6,29.0,94,90,85,30.17,30.11,0,0,0,0.00
2013-3-2,36.0,31.8,26.0,26.0,23.2,20.0,82,70,61,30.26,30.21,0,0,0,0.00
2013-3-3,41.0,34.5,24.0,30.0,23.1,-99.9,87,67,53,30.22,30.04,0,0,0,0.00
2013-3-4,51.0,45.1,36.0,42.0,35.0,29.0,80,68,60,30.04,29.75,0,0,0,0.00
2013-3-5,38.0,35.3,34.0,35.0,30.4,26.0,97,83,71,30.03,29.91,0,0,0,0.00
2013-3-6,41.0,35.7,29.0,30.0,26.5,24.0,83,69,60,30.37,30.33,0,0,0,0.00
2013-3-7,43.0,38.8,26.0,33.0,30.2,23.0,89,71,62,30.44,30.32,0,0,0,0.00
2013-3-8,50.0,44.7,32.0,37.0,34.4,29.0,89,68,55,30.43,30.25,0,0,0,0.00
2013-3-9,63.0,55.7,44.0,45.0,43.2,42.0,92,64,47,30.05,29.81,0,0,0,0.00
2013-3-10,52.0,51.0,49.0,52.0,50.8,48.0,99,99,98,29.70,29.64,0,0,0,0.00
2013-3-11,39.0,37.6,36.0,34.0,32.2,30.0,88,81,77,29.91,29.78,0,0,0,0.00
2013-3-12,49.0,42.2,32.0,31.0,27.6,-99.9,84,60,47,30.17,30.06,0,0,0,0.00
2013-3-13,40.0,36.3,30.0,27.0,22.1,20.0,74,57,46,30.42,30.33,0,0,0,0.00
2013-3-14,48.0,42.8,35.0,37.0,32.4,27.0,82,67,57,30.35,30.09,0,0,0,0.00
2013-3-15,66.0,57.7,36.0,51.0,46.6,34.0,91,68,52,29.97,29.66,0,0,0,0.00
2013-3-16,48.0,45.9,44.0,42.0,39.2,38.0,82,77,72,29.99,29.87,0,0,0,0.00
2013-3-17,37.0,35.9,34.0,37.0,35.9,34.0,99,99,99,30.07,29.89,0,0,0,0.00
2013-3-18,47.0,43.8,40.0,46.0,41.5,39.0,100,92,75,29.86,29.71,0,0,0,0.00
2013-3-19,48.0,42.3,34.0,33.0,25.4,21.0,80,52,35,30.21,30.12,0,0,0,0.00
2013-3-20,37.0,33.3,29.0,28.0,20.3,15.0,77,59,47,30.27,30.11,0,0,0,0.00
2013-3-21,40.0,34.1,26.0,23.0,19.7,15.0,72,56,44,30.12,29.99,0,0,0,0.00
2013-3-22,45.0,39.7,33.0,30.0,27.1,23.0,70,61,53,30.04,29.98,0,0,0,0.00
2013-3-23,51.0,47.9,40.0,38.0,32.2,26.0,72,55,46,30.03,29.80,0,0,0,0.00
2013-3-24,34.0,32.5,32.0,34.0,32.5,32.0,99,99,99,29.70,29.54,0,0,0,0.00
2013-3-25,37.0,35.2,32.0,37.0,33.9,29.0,99,95,84,30.15,29.97,0,0,0,0.00
2013-3-26,42.0,37.8,31.0,31.0,28.7,27.0,87,70,59,30.35,30.28,0,0,0,0.00
2013-3-27,48.0,39.5,27.0,36.0,30.1,24.0,90,70,53,30.40,30.29,0,0,0,0.00
2013-3-28,56.0,48.1,38.0,42.0,37.2,30.0,79,66,56,30.35,30.21,0,0,0,0.00
2013-3-29,60.0,53.6,42.0,50.0,45.9,40.0,94,76,62,30.24,30.15,0,0,0,0.00
2013-3-30,56.0,50.1,42.0,49.0,45.2,-99.9,96,89,73,30.14,29.90,0,0,0,0.00
2013-3-31,63.0,58.5,48.0,55.0,45.5,39.0,97,65,43,29.90,29.83,0,0,0,0.00